Location: Stigler
(35.2540°N, 95.1230°W)
Time: 04:32:50
(UTC-06:00)

Cosmos 292 Rocket - Pass Details

Date: 26 September 2017
Orbit: 675 x 694 km, 74.0° (Epoch: 11 December)

Event Time Altitude Azimuth Distance (km) Brightness Sun altitude
Rises 20:44:56 0° 199° (SSW) 3,046 7.2 -19.9°
Reaches altitude 10° 20:47:14 10° 200° (SSW) 2,136 6.4 -20.3°
Maximum altitude 20:52:03 79° 287° (WNW) 709 3.8 -21.3°
Drops below altitude 10° 20:56:55 10° 15° (NNE) 2,155 6.3 -22.3°
Sets 20:59:15 0° 16° (NNE) 3,076 7.1 -22.7°
